Location: Alafon
(8.4500°N, 4.2333°E)
Time: 02:53:54
(UTC+00:00)

Vanguard 2 - Pass Details

Date: 09 August 2021
Orbit: 553 x 2937 km, 32.9° (Epoch: 27 September)

Event Time Altitude Azimuth Distance (km) Brightness Sun altitude
Rises 13:11:14 0° 240° (WSW) 5,455 12.1 68.6°
Reaches altitude 10° 13:21:13 10° 202° (SSW) 5,197 11.9 66.2°
Maximum altitude 13:22:48 10° 196° (SSW) 5,271 11.9 65.9°
Drops below altitude 10° 13:24:25 10° 190° (S) 5,373 11.9 65.5°
Sets 13:36:59 0° 153° (SSE) 6,774 12.1 62.6°
